Weather Service Report


742 
ASUS46 KSEW 270610
RWRWA 

WASHINGTON REGIONAL WEATHER ROUNDUP
NATIONAL WEATHER SERVICE SEATTLE WA
1000 PM PST THU FEB 26 2015

NOTE:"FAIR" INDICATES FEW OR NO CLOUDS BELOW 12,000 FEET WITH NO 
SIGNIFICANT WEATHER AND/OR OBSTRUCTIONS TO VISIBILITY.

WAZ505-507>509-270700-
SEATTLE, TACOMA, EVERETT, AND VICINITY
  
CITY           SKY/WX    TMP DP  RH WIND       PRES   REMARKS
EVERETT        CLOUDY    48  45  89 VRB3      29.86F                  
6HR MIN TEMP:  47; 6HR MAX TEMP:  50; 6HR PCP:  0.02;                

BOEING FIELD   LGT RAIN  51  47  86 E7        29.86F                  
6HR MIN TEMP:  51; 6HR MAX TEMP:  55; 6HR PCP:  0.11;                

RENTON         LGT RAIN  49  48  97 E5        29.86F                  
6HR MIN TEMP:  49; 6HR MAX TEMP:  52; 6HR PCP:  0.09;                

SEATAC AIRPORT LGT RAIN  48  46  93 SE6       29.86F                  
6HR MIN TEMP:  49; 6HR MAX TEMP:  52; 6HR PCP:  0.22;                

JBLM-MCCHORD   CLOUDY    48  48 100 S3        29.86F                  
PUYALLUP       CLOUDY    48  48 100 CALM      29.86F FOG              
BREMERTON      CLOUDY    48  48 100 SE3       29.88F                  
6HR MIN TEMP:  48; 6HR MAX TEMP:  52;                                

JBLM-FT LEWIS  NOT AVBL                                               
TACOMA NARROWS LGT RAIN  49  48  97 CALM      29.86F                  
6HR MIN TEMP:  48; 6HR MAX TEMP:  52; 6HR PCP:  0.10;                

$$
 
WAZ001-503-506-510-514-515-270700-
NORTH INTERIOR
  
CITY           SKY/WX    TMP DP  RH WIND       PRES   REMARKS
BELLINGHAM     CLOUDY    45  41  86 NE5       29.87F                  
6HR MIN TEMP:  45; 6HR MAX TEMP:  50;                                

FRIDAY HARBOR  LGT RAIN  46  44  93 CALM      29.87F                  
6HR MIN TEMP:  46; 6HR MAX TEMP:  50; 6HR PCP: TRACE;                

EASTSOUND      CLOUDY    46  43  87 NE6       29.85F                  
PORT ANGELES   LGT RAIN  48  46  93 VRB7      29.83F                  
6HR MIN TEMP:  47; 6HR MAX TEMP:  49; 6HR PCP:  0.14;                

NAS WHIDBEY    LGT RAIN  49  43  80 E6        29.86F                  
6HR MIN TEMP:  49; 6HR MAX TEMP:  53; 6HR PCP: TRACE;                

ARLINGTON      CLOUDY    46  41  81 CALM      29.88F                  
6HR MIN TEMP:  45; 6HR MAX TEMP:  52;                                

BURLINGTON     MOCLDY    46  45  93 NE7       29.88F                  
$$
 
WAZ020-022-039-040-504-511-512-270700-
SOUTHWEST INTERIOR
  
CITY           SKY/WX    TMP DP  RH WIND       PRES   REMARKS
SHELTON        LGT RAIN  48  47  96 CALM      29.83F                  
6HR MIN TEMP:  47; 6HR MAX TEMP:  52; 6HR PCP:  0.04;                

OLYMPIA        CLOUDY    48  47  96 S3        29.86F                  
6HR MIN TEMP:  48; 6HR MAX TEMP:  52; 6HR PCP: TRACE;                

CHEHALIS       CLOUDY    50  48  93 S7        29.86F                  
KELSO          CLOUDY    50  46  87 S5        29.91F                  
6HR MIN TEMP:  48; 6HR MAX TEMP:  52;                                

VANCOUVER      CLOUDY    50  48  93 CALM      29.89F                  
6HR MIN TEMP:  50; 6HR MAX TEMP:  52; 6HR PCP:  0.02;                

SCAPPOOSE, OR  LGT RAIN  48  47  96 CALM      29.88F FOG              
6HR MIN TEMP:  46; 6HR MAX TEMP:  52; 6HR PCP:  0.01;                

PORTLAND, OR   CLOUDY    50  49  96 S5        29.91F                  
6HR MIN TEMP:  50; 6HR MAX TEMP:  53; 6HR PCP:  0.03;                

$$
 
WAZ021-516-517-270700-
WASHINGTON COAST
  
CITY           SKY/WX    TMP DP  RH WIND       PRES   REMARKS
FORKS          RAIN      48  47  96 SE5       29.79F FOG              
6HR MIN TEMP:  48; 6HR MAX TEMP:  49; 6HR PCP:  0.53;                

HOQUIAM        LGT RAIN  50  49  96 E9        29.81F FOG              
6HR MIN TEMP:  50; 6HR MAX TEMP:  52; 6HR PCP:  0.05;                

ASTORIA, OR    LGT RAIN  49  47  93 S3        29.84F FOG              
6HR MIN TEMP:  49; 6HR MAX TEMP:  51; 6HR PCP:  0.02;                

$$
 
WAZ019-023-024-040-518-519-270700-
CASCADE MOUNTAINS AND COLUMBIA GORGE
  
CITY           SKY/WX    TMP DP  RH WIND       PRES   REMARKS
TROUTDALE, OR  CLOUDY    51  47  86 CALM      29.90F                  
6HR MIN TEMP:  50; 6HR MAX TEMP:  54; 6HR PCP:  0.03;                

THE DALLES, OR CLOUDY    48  42  80 SE7       29.90F                  
6HR MIN TEMP:  48; 6HR MAX TEMP:  58;                                

$$

WAZ026-027-041>044-520-521-270700-
EAST SLOPES
  
CITY           SKY/WX    TMP DP  RH WIND       PRES   REMARKS
OMAK           CLOUDY    40  29  64 W3        29.92S                  
6HR MIN TEMP:  39; 6HR MAX TEMP:  53;                                

WENATCHEE      MOCLDY    46  32  58 E7        29.89F                  
6HR MIN TEMP:  45; 6HR MAX TEMP:  54;                                

ELLENSBURG     CLOUDY    44  40  85 CALM      29.89F                  
6HR MIN TEMP:  43; 6HR MAX TEMP:  49; 6HR PCP:  0.06;                

YAKIMA         CLOUDY    48  39  71 SW3       29.90F                  
6HR MIN TEMP:  48; 6HR MAX TEMP:  58; 6HR PCP: TRACE;                

$$

WAZ028-034-035-270700-
COLUMBIA BASIN
  
CITY           SKY/WX    TMP DP  RH WIND       PRES   REMARKS
EPHRATA        CLOUDY    39  32  76 N8        29.91S                  
6HR MIN TEMP:  38; 6HR MAX TEMP:  52;                                

MOSES LAKE     CLOUDY    37  31  78 N8        29.92F                  
6HR MIN TEMP:  35; 6HR MAX TEMP:  51;                                

PASCO          CLOUDY    45  39  79 CALM      29.91F                  
6HR MIN TEMP:  43; 6HR MAX TEMP:  56; 6HR PCP: TRACE;                

HERMISTON, OR  CLOUDY    47  40  76 SE3       29.89F                  
6HR MIN TEMP:  45; 6HR MAX TEMP:  58;                                

$$

WAZ036>038-270700-
NORTHEAST WASHINGTON
  
CITY           SKY/WX    TMP DP  RH WIND       PRES   REMARKS
SPOKANE GEIGER MOCLDY    35  32  88 CALM      29.91F                  
6HR MIN TEMP:  35; 6HR MAX TEMP:  42;                                

SPOKANE FELTS  CLOUDY    36  31  82 CALM      29.93F                  
6HR MIN TEMP:  36; 6HR MAX TEMP:  46;                                

FAIRCHILD AFB  NOT AVBL                                               
COEURDALENE,ID CLOUDY    36  28  75 NE7       29.92S                  
6HR MIN TEMP:  36; 6HR MAX TEMP:  43;                                

DEER PARK      CLOUDY    32  29  88 NW3       29.93F                  
6HR MIN TEMP:  32; 6HR MAX TEMP:  40;                                

$$

WAZ029>033-270700-
SOUTHEAST WASHINGTON
  
CITY           SKY/WX    TMP DP  RH WIND       PRES   REMARKS
PULLMAN        CLOUDY    37  32  82 CALM      29.91F                  
6HR MIN TEMP:  37; 6HR MAX TEMP:  42;                                

LEWISTON, ID   CLOUDY    41  38  89 SE3       29.92F                  
6HR MIN TEMP:  41; 6HR MAX TEMP:  44; 6HR PCP: TRACE;                

WALLA WALLA    PTCLDY    42  35  76 E9        29.89F                  
6HR MIN TEMP:  42; 6HR MAX TEMP:  52; 6HR PCP: TRACE;                

PENDLETON, OR  CLOUDY    43  38  82 E7        29.88F                  
6HR MIN TEMP:  43; 6HR MAX TEMP:  51;                                

$$

Return to Home page


Western Regional Climate Center, wrcc@dri.edu